Weather History for Nome, AK

Change the Weather History Date:

Sunday, October 20, 2013

  Actual Average Record
Temperature  
Mean Temperature 40 °F 27 °F  
Max Temperature 41 °F 33 °F 44 °F (1976)
Min Temperature 39 °F 21 °F 1 °F (1996)
Degree Days  
Heating Degree Days 25 38  
Month to date heating degree days 566 676  
Since 1 July heating degree days 2086 2206  
Cooling Degree Days 0    
Month to date cooling degree days 0  
Year to date cooling degree days 7  
Moisture  
Dew Point 38 °F    
Average Humidity 0    
Maximum Humidity 0    
Minimum Humidity 0    
Precipitation  
Precipitation 0.23 in 0.04 in 0.33 in (1938)
Month to date precipitation 2.86 1.12  
Year to date precipitation 17.95 14.02  
Snow  
Snow 0.00 in 0.20 in 1.80 in (1955)
Month to date snowfall 0.2 2.2  
Since 1 July snowfall 1.3 2.8  
Since 1 September snowfall 1.3 2.8  
Snow Depth 0.00 in    
Sea Level Pressure  
Sea Level Pressure 29.35 in    
Wind  
Wind Speed 15 mph (SE)    
Max Wind Speed 24 mph    
Max Gust Speed 32 mph    
Visibility 6 miles    
Events Rain    
T = Trace of Precipitation, MM = Missing Value Source: NWS Daily Summary

Daily Weather History Graph

Daily Weather History Graph

Search for Another Location

Airport:

Trip Planner

Search our weather history database for the weather conditions in past years. The results will help you decide how hot, cold, wet, or windy it might be!

Date:

Astronomy

Oct. 20, 2013 Rise Set
Actual Time 10:10 AM AKDT 7:21 PM AKDT
Civil Twilight 9:19 AM AKDT 8:11 PM AKDT
Nautical Twilight 8:23 AM AKDT 9:07 PM AKDT
Astronomical Twilight 7:27 AM AKDT 10:03 PM AKDT
Moon 7:47 PM AKDT (10/20) 12:48 PM AKDT (10/20)
Length of Visible Light 10h 52m
Length of Day
9h 10m
Waning Gibbous, 96% of the Moon is Illuminated
Oct 20
Waning Gibbous
Oct 26
Last Quarter
Nov 3
New
Nov 9
First Quarter
Nov 17
Full

Hourly Weather History & Observations

Time (AKDT) Temp. Windchill Dew Point Humidity Pressure Visibility Wind Dir Wind Speed Gust Speed Precip Events Conditions
12:47 AM 41.0 °F 34.3 °F 39.2 °F 93% 29.18 in 9.0 mi East 11.5 mph - 0.03 in Rain Light Rain
12:53 AM 41.0 °F 34.3 °F 39.9 °F 96% 29.18 in 10.0 mi East 11.5 mph - 0.03 in Rain Light Rain
1:32 AM 41.0 °F 35.8 °F 39.2 °F 93% 29.19 in 10.0 mi East 8.1 mph - 0.00 in Rain Light Rain
1:53 AM 41.0 °F 34.7 °F 39.9 °F 96% 29.20 in 10.0 mi East 10.4 mph - 0.00 in   Overcast
2:53 AM 41.0 °F 35.2 °F 37.9 °F 89% 29.22 in 10.0 mi ESE 9.2 mph - 0.00 in   Overcast
3:53 AM 41.0 °F 34.3 °F 39.0 °F 93% 29.23 in 7.0 mi ESE 11.5 mph - N/A   Overcast
4:53 AM 39.9 °F 33.9 °F 37.9 °F 93% 29.24 in 10.0 mi East 9.2 mph - 0.00 in   Overcast
5:10 AM 39.2 °F 32.0 °F 37.4 °F 93% 29.24 in 3.0 mi East 11.5 mph 19.6 mph 0.00 in Rain Light Rain
5:41 AM 39.2 °F 32.0 °F 39.2 °F 100% 29.25 in 2.5 mi East 11.5 mph - 0.01 in   Overcast
5:53 AM 39.9 °F 32.5 °F 39.0 °F 97% 29.25 in 2.0 mi East 12.7 mph - 0.01 in   Overcast
6:35 AM 39.2 °F 30.5 °F 39.2 °F 100% 29.25 in 3.0 mi East 16.1 mph - 0.01 in Rain Light Rain
6:51 AM 39.2 °F 30.5 °F 39.2 °F 100% 29.25 in 7.0 mi ESE 16.1 mph - 0.01 in Rain Light Rain
6:53 AM 39.9 °F 31.8 °F 39.0 °F 97% 29.26 in 7.0 mi ESE 15.0 mph - 0.02 in Rain Light Rain
7:39 AM 39.2 °F 32.0 °F 37.4 °F 93% 29.26 in 3.0 mi East 11.5 mph - 0.07 in Rain Light Rain
7:53 AM 39.0 °F 31.4 °F 37.9 °F 96% 29.26 in 3.0 mi East 12.7 mph - 0.09 in Rain Light Rain
8:05 AM 39.2 °F 31.6 °F 39.2 °F 100% 29.26 in 3.0 mi East 12.7 mph - 0.01 in Rain Light Rain
8:35 AM 39.2 °F 31.2 °F 39.2 °F 100% 29.27 in 3.0 mi SE 13.8 mph - 0.02 in Rain Light Rain
8:53 AM 39.9 °F 32.1 °F 39.9 °F 100% 29.28 in 3.0 mi SE 13.8 mph - 0.04 in Rain Light Rain
9:22 AM 39.2 °F 30.8 °F 39.2 °F 100% 29.29 in 8.0 mi SE 15.0 mph - 0.02 in Rain Light Rain
9:51 AM 39.2 °F 30.8 °F 39.2 °F 100% 29.30 in 7.0 mi SE 15.0 mph - 0.04 in Rain Light Rain
9:53 AM 39.9 °F 31.8 °F 39.0 °F 97% 29.30 in 7.0 mi SE 15.0 mph - 0.04 in Rain Light Rain
10:10 AM 39.2 °F 30.8 °F 39.2 °F 100% 29.30 in 2.5 mi SE 15.0 mph - 0.01 in Rain Light Rain
10:19 AM 39.2 °F 30.8 °F 39.2 °F 100% 29.31 in 3.0 mi SE 15.0 mph - 0.01 in Rain Light Rain
10:31 AM 39.2 °F 30.5 °F 39.2 °F 100% 29.31 in 6.0 mi SE 16.1 mph - 0.01 in Rain Light Rain
10:43 AM 39.2 °F 30.8 °F 39.2 °F 100% 29.32 in 2.5 mi SE 15.0 mph - 0.01 in Rain Light Rain
10:53 AM 39.9 °F 32.1 °F 39.9 °F 100% 29.32 in 2.5 mi SE 13.8 mph - 0.01 in Rain Light Rain
11:28 AM 39.2 °F 29.8 °F 39.2 °F 100% 29.33 in 6.0 mi SE 18.4 mph - 0.02 in Rain Light Rain
11:53 AM 39.9 °F 32.1 °F 39.9 °F 100% 29.34 in 2.0 mi SE 13.8 mph - 0.02 in   Overcast
12:00 PM 39.2 °F 30.8 °F 39.2 °F 100% 29.34 in 1.2 mi SE 15.0 mph - 0.00 in Rain Light Rain
12:16 PM 39.2 °F 30.5 °F 39.2 °F 100% 29.35 in 3.0 mi SSE 16.1 mph 24.2 mph 0.00 in   Overcast
12:32 PM 39.2 °F 30.2 °F 39.2 °F 100% 29.35 in 2.0 mi SSE 17.3 mph - 0.00 in Rain Light Rain
12:39 PM 39.2 °F 30.8 °F 39.2 °F 100% 29.35 in 1.2 mi SSE 15.0 mph - 0.00 in Rain Light Rain
12:53 PM 39.9 °F 31.1 °F 39.9 °F 100% 29.36 in 2.0 mi SSE 17.3 mph 25.3 mph 0.00 in Rain Light Rain
1:01 PM 39.2 °F 30.2 °F 39.2 °F 100% 29.36 in 10.0 mi SSE 17.3 mph - 0.00 in   Overcast
1:39 PM 39.2 °F 30.2 °F 39.2 °F 100% 29.38 in 4.0 mi SSE 17.3 mph - 0.00 in Rain Light Rain
1:51 PM 39.2 °F 29.0 °F 39.2 °F 100% 29.39 in 4.0 mi SSE 21.9 mph 28.8 mph 0.00 in   Overcast
1:53 PM 39.9 °F 30.2 °F 39.0 °F 97% 29.39 in 4.0 mi SSE 20.7 mph 28.8 mph 0.00 in   Overcast
2:02 PM 39.2 °F 29.6 °F 39.2 °F 100% 29.39 in 1.8 mi South 19.6 mph 28.8 mph 0.00 in Rain Light Rain
2:11 PM 39.2 °F 29.8 °F 39.2 °F 100% 29.39 in 3.0 mi SSE 18.4 mph 27.6 mph 0.00 in Rain Light Rain
2:32 PM 39.2 °F 29.8 °F 37.4 °F 93% 29.40 in 10.0 mi SSE 18.4 mph 27.6 mph 0.00 in Rain Light Rain
2:53 PM 39.9 °F 30.0 °F 37.9 °F 93% 29.41 in 10.0 mi South 21.9 mph 29.9 mph 0.00 in   Overcast
3:22 PM 41.0 °F 31.4 °F 37.4 °F 87% 29.41 in 10.0 mi SSE 21.9 mph 28.8 mph 0.00 in Rain Light Rain
3:53 PM 41.0 °F 31.4 °F 36.0 °F 82% 29.43 in 10.0 mi SSE 21.9 mph 29.9 mph 0.00 in   Overcast
4:53 PM 41.0 °F 32.5 °F 36.0 °F 82% 29.46 in 10.0 mi SSE 17.3 mph 24.2 mph N/A   Overcast
5:53 PM 41.0 °F 32.8 °F 36.0 °F 82% 29.48 in 10.0 mi SSE 16.1 mph - N/A   Overcast
6:18 PM 41.0 °F 32.5 °F 35.6 °F 81% 29.49 in 10.0 mi SE 17.3 mph - N/A   Overcast
6:53 PM 41.0 °F 32.8 °F 36.0 °F 82% 29.51 in 10.0 mi SE 16.1 mph - N/A   Overcast
7:53 PM 39.9 °F 32.1 °F 37.0 °F 89% 29.52 in 10.0 mi SE 13.8 mph - 0.00 in   Overcast
8:53 PM 39.9 °F 31.8 °F 36.0 °F 86% 29.54 in 10.0 mi SE 15.0 mph - N/A   Mostly Cloudy
9:53 PM 39.9 °F 31.8 °F 37.0 °F 89% 29.55 in 10.0 mi SE 15.0 mph - N/A   Mostly Cloudy
10:51 PM 39.2 °F 30.2 °F 37.4 °F 93% 29.57 in 10.0 mi SE 17.3 mph 23.0 mph 0.00 in   Overcast
10:53 PM 39.9 °F 31.4 °F 37.0 °F 89% 29.57 in 10.0 mi SE 16.1 mph 23.0 mph 0.00 in   Overcast
11:51 PM 39.2 °F 30.2 °F 35.6 °F 87% 29.58 in 10.0 mi SE 17.3 mph - N/A   Mostly Cloudy
11:53 PM 39.9 °F 31.1 °F 36.0 °F 86% 29.59 in 10.0 mi SE 17.3 mph - N/A   Mostly Cloudy